Location: Diebersbach
(48.5163°N, 8.0558°E)
Time: 03:24:18
(UTC+00:00)

USA 229 - Pass Details

Date: 28 October 2021
Orbit: 946 x 1266 km, 63.4° (Epoch: 25 November)

Event Time Altitude Azimuth Distance (km) Brightness Sun altitude
Rises 18:07:01 0° 231° (SW) 3,649 7.3 -19.1°
Reaches altitude 10° 18:09:32 10° 235° (SW) 2,732 6.6 -19.5°
Maximum altitude 18:15:54 65° 317° (NW) 1,124 3.9 -20.6°
Enters shadow 18:21:45 15° 37° (NE) 2,580 5.4 -21.6°
